CZ-6A DEB, 61334

Orbit data source: Space-Track

CZ-6A DEB, 61334 is space debris in LEO originally from a launch on Tue, 06 Aug 2024 UTC launched from the Taiyaun Space Center, China (TSC). Debris objects in space refer to the collection of defunct objects orbiting the Earth. Examples of debris include non-operational satellites, rocket bodies, and fragments generated from explosions, collisions, or faulty payload assembly.

Loading next visibility...
Identifier
61334, 2024-140UX
Orbit
LEO
Country
Flag of CNCN / PRC
Related business
Manufacturer
SAST
Mission
Spacecraft
Bus & Motor
Unknown
Mass
Unknown
Launch date (UTC)
2024-08-06 (2 years ago)
Launch vehicle
Unknown
Launch site
Taiyaun Space Center, China (TSC)
Object type
Payload
Rocket body
Debris
Shape & HBR
Unknown shape, 0.1 m
Radar Cross Section
Medium (>0.1 m² and <1 m²)

Expand to show TLE details & history
Last TLE update: 16 hours ago

TLE from 16 hours ago
0 CZ-6A DEB
1 61334U 24140UX  26171.31007701  .00000886  00000-0  40371-3 0  9994
2 61334  89.0078 274.9736 0050499 184.9337 175.1363 14.20180856 92924
Epoch: 2026-06-20T07:26Z
TLE epoch observation values (Epoch: 2026-06-20T07:26:30.653Z)
Latitude
-0°
Longitude
-105.18066°
Altitude
864.047 km
Speed
7.402 km/s
True Right ascension
18h 19m 53s
True Declination
0° 00' 00"
Sunlit
Object was in full shadow at epoch
Visualization orbit readout
Latitude
Unknown
Longitude
Unknown
Altitude
Unknown
Speed
Unknown
Apparent Right ascension
Unknown
Apparent Declination
Unknown
Sunlit
N/A
Visualization observer readout
Local Sidereal Time
10:17:07
Azimuth
Unknown
Elevation
Unknown
Doppler factor
Unknown
Orbital elements
Apogee altitude
858.05 km
Perigee altitude
785.334 km
Semi-major axis
7,199.829 km
Eccentricity
0.00505
Inclination
89.0078°
RAAN
274.9736°
Arg. of periapsis
184.9337°
True anomaly
175.18506°
Mean anomaly
175.1363°
Eccentric anomaly
175.16071°
Mean motion
3.55271 °/min
Orbital period
101.33 mins
BSTAR
0.00040371
Loading maneuver chart data...
Computing Atmospheric mass density...
Loading historical data...
Loading historical data...
Loading historical data...
Loading historical data...
Loading historical data...
Loading historical data...
Loading historical data...

Documentation

Showing up to 5 results
|